This is the latest recevied weather packets stored in our database for station/object KB3FKJ. If no packets are shown the sender has not sent any weather packets the latest 10 day(s).
| Time | Temp. | Humidity | Pressure | Rain* | Wind** | Luminosity | Snow |
|---|---|---|---|---|---|---|---|
| 1778006241 | 24.44° C | 40% | 1006.4 hPa | 0 mm | - | 170 W/m² | - |
| 1778005938 | 24.44° C | 40% | 1006.5 hPa | 0 mm | - | 169 W/m² | - |
| 1778005634 | 25° C | 39% | 1006.4 hPa | 0 mm | - | 209 W/m² | - |
| 1778005331 | 24.44° C | 40% | 1006.8 hPa | 0 mm | - | 218 W/m² | - |
| 1778005028 | 24.44° C | 40% | 1006.7 hPa | 0 mm | - | 183 W/m² | - |
| 1778004726 | 25° C | 40% | 1006.8 hPa | 0 mm | - | 247 W/m² | - |
| 1778004421 | 25° C | 41% | 1006.7 hPa | 0 mm | - | 323 W/m² | - |
| 1778004119 | 25° C | 41% | 1006.9 hPa | 0 mm | - | 213 W/m² | - |
| 1778003814 | 25° C | 42% | 1007.1 hPa | 0 mm | - | 161 W/m² | - |
| 1778003511 | 23.89° C | 40% | 1007.2 hPa | 0 mm | - | 143 W/m² | - |
| 1778003208 | 24.44° C | 42% | 1007.1 hPa | 0 mm | - | 150 W/m² | - |
| 1778002904 | 25° C | 39% | 1007.3 hPa | 0 mm | - | 202 W/m² | - |
| 1778002601 | 25° C | 41% | 1007.4 hPa | 0 mm | - | 186 W/m² | - |
| 1778002298 | 24.44° C | 40% | 1007.4 hPa | 0 mm | - | 162 W/m² | - |
| 1778001995 | 24.44° C | 40% | 1007.3 hPa | 0 mm | - | 180 W/m² | - |
| 1778001692 | 24.44° C | 41% | 1007.2 hPa | 0 mm | - | 126 W/m² | - |
| 1778001387 | 24.44° C | 42% | 1007.3 hPa | 0 mm | - | 114 W/m² | - |
| 1778001084 | 23.89° C | 46% | 1007.2 hPa | 0 mm | - | 112 W/m² | - |
| 1778000781 | 23.89° C | 47% | 1007.3 hPa | 0 mm | - | 170 W/m² | - |
| 1778000477 | 24.44° C | 43% | 1007.4 hPa | 0 mm | - | 206 W/m² | - |
| 1778000172 | 23.89° C | 43% | 1007.3 hPa | 0 mm | - | 203 W/m² | - |
| 1777999868 | 23.89° C | 48% | 1007.4 hPa | 0 mm | - | 167 W/m² | - |
| 1777999558 | 23.33° C | 47% | 1007.4 hPa | 0 mm | - | 148 W/m² | - |
| 1777999257 | 23.33° C | 46% | 1007.3 hPa | 0 mm | - | 159 W/m² | - |
| 1777998955 | 22.78° C | 45% | 1007.6 hPa | 0 mm | - | 187 W/m² | - |
* Rain latest hour (hover to see other rain measurements)
** Current wind speed in m/s (hover to see current wind gust speed)